Theta_e
350 351 351 350 349 348 349 350 349 348 348 348 348 348 347 347 345 345 346 347 347 349 349 347 347 347 346 347 346 346 347 347 346 347 347 348 348 346 343 344 344 344 344 340 337 336 335 335 337 340 340 338 339 342 343 343 343 344 344 342 345 348 348
349 350 350 350 349 349 349 350 349 347 346 347 347 346 346 345 344 345 347 348 348 349 348 346 347 348 347 347 347 347 347 346 346 347 348 347 347 346 345 345 345 343 343 343 340 336 334 334 336 337 339 339 342 344 343 343 342 343 345 344 344 345 344
349 349 350 350 350 350 349 350 349 346 345 345 345 345 346 345 345 346 347 347 348 348 348 347 348 348 348 348 348 348 347 345 345 347 348 347 345 345 346 345 345 344 343 344 343 339 337 336 335 335 338 342 346 346 343 343 341 341 345 344 344 347 343
349 350 350 350 351 350 349 350 348 346 344 344 344 343 344 345 347 347 347 348 347 348 347 347 347 348 349 349 349 349 347 344 345 346 347 347 345 345 346 344 344 345 345 344 343 342 342 340 337 335 338 342 348 349 345 345 343 342 345 344 345 349 345
349 349 349 351 352 351 351 350 347 344 341 341 341 341 342 345 348 348 347 348 347 347 347 346 347 348 349 349 349 348 345 344 346 347 347 347 346 346 347 345 344 345 345 344 343 342 342 343 341 340 340 342 346 348 345 345 346 345 345 343 346 351 348
348 349 349 350 351 351 351 349 346 342 340 339 339 338 339 343 345 346 347 346 346 346 346 346 347 348 348 348 348 347 346 346 347 347 347 348 347 347 347 346 346 345 344 344 344 342 340 341 343 343 344 344 345 347 346 346 346 347 346 343 345 350 351
350 349 349 349 350 350 351 349 345 343 342 342 341 340 340 341 343 345 346 346 346 347 346 346 348 348 347 347 347 347 346 347 347 347 348 347 346 346 347 346 346 345 344 343 343 341 339 339 343 345 345 345 345 345 346 346 347 348 348 344 343 347 348
352 351 350 350 349 349 352 350 345 343 343 343 344 344 343 343 343 345 346 346 347 348 347 347 348 348 347 347 346 347 347 348 348 347 347 346 345 346 346 346 346 345 345 343 343 342 340 338 341 344 346 345 345 344 345 346 344 345 348 346 344 344 345
354 353 352 351 350 350 352 352 348 345 344 343 344 345 346 346 346 345 345 345 347 349 349 349 349 348 347 348 347 347 347 348 348 347 346 346 346 346 345 345 346 345 345 345 345 344 343 340 341 344 346 345 345 345 346 346 343 343 347 348 347 346 345
356 355 354 353 352 352 353 351 348 345 344 344 344 345 346 346 347 347 347 347 346 347 349 350 350 349 349 349 348 346 346 348 348 347 346 347 346 345 345 345 345 345 345 346 346 345 344 343 343 345 345 345 346 346 346 347 347 347 348 348 348 348 348
357 356 355 355 354 354 353 351 349 346 345 345 344 344 344 343 344 347 349 349 348 348 349 350 350 350 350 349 348 347 348 348 348 347 347 347 346 345 345 344 344 345 345 345 346 345 344 344 344 345 345 344 345 347 346 347 348 349 348 347 348 349 349
355 356 356 356 355 355 355 352 350 349 347 346 345 344 344 343 341 342 346 349 350 349 349 349 348 348 349 350 349 347 348 349 347 347 348 346 346 345 345 345 345 345 345 345 346 346 345 343 342 343 344 341 342 346 347 347 348 348 348 347 348 349 349
355 356 356 356 356 355 356 354 353 354 351 349 349 347 348 346 341 338 343 347 348 349 349 348 345 345 347 349 349 348 348 348 348 348 348 347 346 346 346 345 345 345 346 346 346 345 345 344 342 341 342 341 342 346 347 348 349 348 348 348 349 350 349
353 355 354 355 355 354 356 355 356 356 353 352 353 350 348 347 342 339 341 345 346 347 349 348 344 343 346 348 348 349 349 348 348 349 347 347 347 346 346 345 345 346 346 346 346 345 344 344 343 342 343 343 344 346 347 349 350 349 349 349 349 350 350
351 352 352 353 353 353 354 353 355 355 351 352 354 351 348 346 343 341 341 344 346 346 347 348 347 345 346 346 347 348 348 348 348 349 348 348 347 346 346 346 345 346 346 346 346 345 344 344 344 344 345 345 345 346 347 348 349 349 349 349 350 349 349
348 350 351 351 351 352 353 352 353 353 351 351 352 352 351 348 346 343 341 343 346 346 347 348 348 347 347 346 346 346 346 346 346 347 348 347 345 344 345 346 346 345 346 346 346 346 345 345 345 345 345 346 346 346 347 348 348 348 348 348 349 350 350
346 347 349 350 350 351 352 352 352 352 352 351 350 351 351 351 349 346 343 343 346 348 349 349 349 349 349 349 348 346 346 346 345 345 344 343 343 341 342 344 346 345 345 346 346 345 346 346 346 346 346 346 347 347 347 347 346 348 347 343 342 345 349
344 345 347 349 350 350 351 352 351 351 351 351 350 351 351 350 350 348 345 344 346 348 350 350 351 350 350 350 349 348 346 346 345 345 343 341 340 339 339 342 346 346 345 346 345 345 346 346 346 346 346 346 347 347 347 347 346 347 346 341 338 340 345
343 345 345 347 349 349 350 351 352 352 352 350 350 350 350 349 350 349 347 346 347 348 349 350 351 350 349 349 348 348 347 345 345 345 345 344 342 340 339 341 343 345 346 346 345 345 346 345 344 345 346 347 347 347 347 347 347 347 345 341 338 339 342
344 345 346 346 347 349 349 350 351 351 352 351 349 348 348 348 349 349 350 349 349 349 348 347 348 348 348 347 346 347 347 346 346 346 346 345 345 344 343 341 341 343 346 347 346 344 344 343 343 344 345 346 347 347 348 347 347 348 346 341 337 339 341
345 346 347 347 348 348 348 349 351 351 351 350 349 347 348 348 347 348 349 350 349 348 348 346 345 345 345 345 346 346 347 347 347 346 346 346 346 346 344 343 342 342 343 346 345 343 342 340 340 342 343 344 344 345 347 346 346 346 343 338 337 339 341
347 347 348 348 348 349 349 350 351 352 350 349 348 348 348 348 347 347 347 347 346 346 347 347 347 347 346 345 347 347 347 347 347 347 347 346 346 346 345 344 343 342 342 343 343 343 342 341 339 340 341 341 341 342 344 345 345 343 338 334 334 338 342
346 346 347 348 347 347 346 345 348 350 349 348 348 348 348 348 348 347 347 346 344 343 344 345 346 347 345 345 346 347 348 348 348 350 349 348 347 347 346 345 344 344 343 342 342 342 342 342 342 342 342 341 340 339 340 341 342 340 336 333 333 336 341
344 344 345 346 346 346 343 342 346 348 348 348 348 347 347 347 346 346 347 346 343 340 341 342 344 345 344 344 345 346 347 347 348 349 350 350 350 349 348 348 347 347 346 345 344 345 344 344 345 345 345 344 342 340 339 340 341 340 336 334 334 335 338
343 343 345 345 346 347 346 343 344 346 346 346 345 345 344 345 345 345 346 346 343 341 341 341 341 343 344 344 345 345 346 346 347 348 349 350 350 349 349 349 348 348 348 347 346 347 346 346 346 347 347 346 345 343 340 340 343 344 342 339 339 337 337
344 344 345 345 346 346 344 342 343 345 345 344 344 343 342 341 341 342 343 344 343 343 343 343 343 344 344 345 345 346 347 346 346 347 348 349 350 349 349 349 348 348 348 348 347 347 347 347 347 347 347 347 347 347 345 344 344 345 345 344 343 343 341
346 345 345 346 345 345 345 345 345 345 344 342 342 341 340 339 340 341 343 344 344 344 343 342 343 344 344 345 345 345 347 348 347 347 347 348 349 350 350 349 349 349 349 348 348 349 349 349 348 348 348 348 347 347 347 347 345 345 345 345 345 345 346
346 346 347 346 345 345 346 345 344 343 342 342 341 340 340 341 343 344 345 345 344 344 342 340 340 342 343 344 345 345 346 347 347 347 347 347 347 348 348 349 349 350 350 350 350 350 349 350 350 349 349 349 349 348 347 347 346 345 344 345 345 345 346
348 349 349 348 346 346 345 343 342 342 342 342 341 340 340 342 344 345 344 344 344 343 342 342 343 343 344 344 345 346 346 345 345 345 345 345 346 346 346 347 347 348 349 349 350 350 350 350 350 350 350 350 350 350 350 349 348 347 346 345 344 344 345
348 348 347 347 348 347 344 342 342 342 341 341 341 340 339 341 344 344 343 343 342 341 342 344 344 344 344 345 345 345 345 344 344 344 344 344 344 344 344 344 344 345 345 346 346 347 348 349 350 350 350 350 350 351 350 349 349 349 349 348 346 345 345
347 346 347 347 347 345 343 341 342 341 340 339 339 338 338 339 342 343 343 342 341 341 343 344 343 343 343 343 344 344 343 343 343 343 343 343 343 342 342 342 342 342 342 342 343 343 344 345 346 347 348 348 349 350 350 350 350 350 350 350 349 348 347
347 347 347 346 344 343 342 342 342 342 342 340 339 339 338 337 339 341 341 339 338 340 342 343 342 343 342 342 343 342 342 343 342 342 342 341 341 340 340 339 339 339 339 340 340 341 342 342 343 344 344 345 346 346 347 348 349 348 349 349 349 349 348
347 347 346 343 342 342 343 342 342 343 344 342 340 339 339 337 336 336 336 336 337 340 341 342 342 342 342 342 342 341 341 342 341 341 341 340 340 340 339 339 338 338 338 338 338 339 340 340 341 342 342 342 343 343 344 345 345 345 346 346 346 347 347
344 345 344 342 341 342 344 343 343 343 343 343 341 339 337 336 336 335 336 338 339 340 341 341 341 342 342 341 340 340 340 340 341 340 340 340 340 340 339 338 338 338 338 338 338 339 339 339 339 339 340 340 341 341 342 342 343 344 345 344 345 345 346
341 340 341 342 342 343 344 343 342 342 342 341 340 338 336 335 335 336 338 339 339 339 340 340 340 340 341 341 341 340 340 339 339 339 339 339 339 339 338 338 337 338 338 338 337 338 338 338 338 338 338 338 338 338 339 340 341 343 344 344 344 345 345
340 341 343 344 344 344 344 344 342 341 340 339 337 336 336 337 337 337 338 339 339 339 339 340 340 340 340 341 340 339 340 340 339 338 338 338 338 338 338 338 337 336 337 337 337 337 337 338 338 338 338 338 337 337 337 336 337 339 340 341 343 344 344
340 343 345 345 345 345 344 342 340 338 337 337 337 336 337 338 338 338 338 339 339 339 339 340 340 340 340 341 340 339 339 339 338 338 337 337 337 337 338 338 337 336 336 335 336 336 336 337 338 338 338 338 337 338 338 338 338 338 338 339 340 341 342
342 343 344 344 344 344 342 340 338 335 335 337 337 337 338 338 338 338 338 338 338 338 339 340 340 339 340 340 340 340 338 337 338 338 337 337 337 337 337 338 338 337 336 334 334 335 335 337 338 338 339 339 339 339 340 340 340 340 340 340 340 340 341
Wind_Speed
4 4 4 4 6 5 4 4 3 2 4 7 13 17 19 21 21 19 17 16 16 17 18 19 19 21 22 22 21 21 21 22 21 19 18 17 18 20 21 20 21 22 21 22 23 24 25 26 24 22 22 22 20 18 18 18 18 18 18 18 16 14 14
4 4 4 4 6 6 6 6 5 3 2 4 7 10 12 15 17 15 14 14 15 16 16 17 19 19 20 20 20 20 21 20 20 18 17 18 19 19 19 19 20 22 22 20 21 24 25 24 24 23 22 21 19 18 18 17 18 18 17 18 17 16 16
4 4 5 5 5 7 7 7 6 5 4 3 4 5 7 9 11 11 12 12 13 14 14 15 17 17 17 18 17 18 19 20 20 19 17 18 20 19 19 19 19 20 21 20 20 22 23 23 23 23 22 20 16 17 17 17 18 18 17 18 17 16 17
5 5 5 5 6 7 7 8 8 7 6 4 2 0 2 4 6 8 11 12 12 13 14 15 16 16 16 17 17 17 19 20 19 18 17 17 18 18 19 20 19 18 19 20 20 20 20 20 23 24 23 20 16 15 16 16 17 17 18 18 17 15 17
6 6 5 5 6 7 8 8 9 9 7 3 1 2 3 4 6 7 9 10 11 13 14 14 14 14 16 17 17 17 18 18 17 17 17 16 17 17 18 19 19 18 19 19 19 20 20 20 21 22 23 21 17 15 16 16 16 17 18 19 17 15 15
7 7 6 6 6 7 8 8 9 9 7 6 4 3 6 9 9 9 10 11 12 12 13 14 13 14 17 17 16 16 16 17 17 17 17 17 17 17 17 18 18 18 19 19 18 20 22 22 20 20 21 20 17 15 14 15 15 16 18 20 18 15 14
6 6 6 6 6 7 9 9 8 8 8 7 7 5 7 10 11 11 12 12 11 10 12 14 14 15 17 15 15 15 15 16 17 17 18 18 18 18 17 17 18 18 18 19 19 20 22 23 21 19 20 19 17 15 14 14 15 15 16 19 19 18 17
6 6 6 6 6 7 9 9 8 8 8 8 8 7 8 9 11 11 12 11 10 9 12 14 15 16 15 13 14 15 16 16 17 18 19 18 18 18 18 18 17 18 18 18 18 19 21 23 22 19 19 19 17 16 15 15 16 15 16 17 18 19 18
6 6 5 6 6 6 7 8 8 9 9 7 7 8 9 10 11 11 12 12 12 12 13 14 14 15 15 15 16 18 18 17 17 18 19 18 18 18 18 18 18 18 17 16 16 17 18 21 21 19 19 19 17 16 16 15 16 15 16 17 17 18 17
6 6 6 6 6 6 6 6 7 8 9 8 8 7 8 10 11 11 11 12 13 14 14 14 14 14 16 17 17 17 18 17 17 18 18 18 18 19 19 18 18 18 18 16 15 16 18 19 19 19 20 19 18 17 17 16 15 16 16 17 17 17 17
6 6 6 6 7 7 6 5 5 7 8 8 8 8 7 6 7 10 12 12 12 14 14 14 15 15 15 16 16 16 17 17 17 17 18 18 18 18 19 18 18 18 18 17 16 16 18 20 20 19 20 21 19 17 18 17 16 17 17 16 16 16 17
7 6 6 6 6 7 6 5 4 5 6 7 6 8 8 8 7 8 10 12 12 13 14 14 14 15 14 14 15 16 17 17 17 16 17 18 17 18 18 18 18 18 18 18 17 16 17 19 21 20 20 21 19 17 18 18 18 18 17 16 16 17 17
7 6 6 5 5 5 5 5 4 4 6 6 6 7 8 9 9 8 9 10 11 13 14 14 13 13 13 14 14 14 15 15 15 15 16 17 17 17 18 18 18 17 17 17 17 17 17 18 20 20 19 20 19 18 18 18 18 18 17 17 17 16 17
7 7 7 5 4 4 4 4 4 4 5 6 6 7 8 9 10 9 9 10 11 13 14 14 13 12 12 13 13 14 14 15 14 14 15 17 17 17 17 18 17 17 17 17 17 18 18 18 19 19 19 20 19 19 18 17 17 18 18 18 17 17 17
8 8 7 6 4 4 4 4 4 3 4 5 6 7 9 10 11 10 9 11 13 14 14 13 12 13 12 12 12 12 13 14 14 14 14 16 18 18 17 17 17 17 17 17 18 18 18 18 18 19 19 19 19 19 18 17 18 18 19 19 18 18 17
8 8 8 7 5 5 5 4 4 3 3 4 6 7 9 9 10 10 10 10 12 15 14 13 12 13 12 11 11 11 11 12 14 15 16 17 19 20 20 18 18 18 18 18 18 18 18 18 18 18 19 19 19 19 19 19 19 19 21 21 19 18 17
8 8 7 7 6 5 5 5 4 4 3 3 4 6 7 7 8 9 10 10 11 13 13 12 12 12 12 10 10 10 10 11 12 14 16 17 19 21 22 20 18 18 19 19 19 19 19 19 19 19 19 19 20 20 20 20 19 21 23 24 23 20 18
9 9 8 7 7 6 5 5 4 4 4 4 4 4 5 6 6 7 9 9 9 10 11 11 10 10 11 10 10 11 12 13 13 13 15 17 18 20 22 22 20 19 20 20 20 21 21 21 21 21 20 19 20 21 21 21 21 23 25 26 24 23 22
10 10 9 8 8 7 6 5 4 4 4 4 4 4 3 3 4 5 6 7 7 7 8 8 8 8 9 10 12 13 14 14 15 15 15 16 17 19 21 22 22 21 20 21 21 21 22 23 23 22 21 21 21 21 21 22 22 24 27 27 24 24 24
10 10 9 8 8 7 6 6 5 5 4 4 4 4 4 3 2 2 3 5 5 5 5 7 8 9 10 12 14 15 15 15 16 16 16 16 17 18 19 21 22 22 22 22 22 23 24 24 24 23 23 23 23 23 23 23 22 24 27 28 25 24 24
11 10 10 9 9 8 7 7 7 6 5 4 3 3 3 3 3 2 2 2 3 4 6 9 9 10 11 13 14 15 16 17 17 18 19 19 19 19 19 20 22 23 23 23 23 24 25 26 25 25 25 26 26 25 24 24 24 26 29 28 26 24 25
11 11 11 10 9 8 7 7 7 7 6 4 3 3 3 3 3 3 2 3 3 4 6 7 8 9 11 12 13 14 16 19 19 20 21 21 22 22 22 22 22 23 23 24 24 24 24 25 26 26 27 28 28 28 27 26 25 28 30 28 26 25 26
11 11 11 10 9 9 8 8 8 7 6 5 4 4 4 4 4 3 3 3 4 5 6 6 7 8 10 11 12 13 15 18 19 19 20 22 24 25 25 24 24 24 24 25 25 25 25 25 25 26 27 28 29 30 30 29 29 30 31 29 26 27 28
11 11 11 11 10 9 8 9 8 7 7 6 5 5 4 4 4 3 4 4 4 5 6 6 6 6 8 10 11 13 15 17 17 18 19 21 22 24 24 25 25 25 25 25 25 25 25 26 26 26 26 27 28 29 30 30 30 31 32 30 28 28 30
11 11 11 11 10 9 9 9 9 8 6 6 6 5 4 3 2 2 3 4 4 5 6 6 6 7 8 9 10 12 13 15 16 17 17 18 19 20 21 23 24 25 25 26 26 25 25 26 26 27 26 26 27 28 30 31 30 31 31 31 29 29 30
11 11 11 11 10 10 10 10 9 8 6 6 5 4 3 3 3 3 3 3 4 5 5 5 6 7 9 10 10 11 11 12 14 15 16 17 17 17 18 19 21 22 23 24 25 25 26 27 27 28 28 28 28 28 29 30 31 32 33 32 30 28 29
12 11 11 11 11 12 11 10 9 8 6 5 4 3 3 3 3 3 3 3 4 5 5 7 7 8 9 10 11 11 11 11 12 13 14 15 16 16 16 17 19 20 21 21 21 22 24 25 26 28 28 29 30 31 31 31 31 32 33 34 32 30 30
12 12 12 12 12 12 11 10 8 7 6 5 4 4 3 3 2 2 2 2 3 4 5 6 8 8 9 9 10 11 13 14 15 14 14 14 15 16 16 17 18 19 19 20 20 21 22 23 24 25 26 27 29 31 31 31 31 32 33 34 34 33 33
13 13 13 13 12 11 11 9 8 6 6 5 5 4 3 2 2 2 2 3 4 5 5 5 6 6 7 8 9 11 12 13 15 15 14 14 15 15 16 17 18 19 19 20 20 22 23 23 23 23 26 28 28 28 28 28 29 30 32 34 35 36 36
14 13 12 12 12 11 10 8 7 6 5 5 4 3 3 2 2 3 3 3 5 5 4 5 5 6 7 9 10 10 9 10 12 14 14 14 15 15 16 17 18 20 21 22 22 23 24 24 24 25 27 29 29 29 28 27 28 29 30 31 34 36 37
14 13 12 12 12 11 9 7 5 5 5 4 4 3 3 3 3 3 3 5 6 5 4 6 7 7 8 10 11 10 10 9 9 11 13 14 14 14 15 16 18 19 21 22 22 22 23 22 22 23 26 27 28 29 28 26 28 30 30 30 32 35 37
14 13 13 13 12 10 8 6 4 3 3 4 4 4 4 4 4 4 5 7 8 6 6 9 9 8 9 10 10 10 12 11 10 11 13 13 13 13 14 15 17 18 20 21 21 21 21 21 20 21 22 23 23 24 24 24 25 26 27 29 31 33 35
15 14 13 12 11 9 7 5 3 3 3 3 4 4 5 5 5 6 7 8 7 6 7 9 9 8 9 11 10 8 9 10 10 10 11 12 13 13 14 15 16 17 18 19 19 19 18 18 19 20 21 22 22 22 22 23 23 22 23 24 26 27 29
15 14 13 11 10 8 5 4 3 3 3 4 3 4 5 6 6 7 7 7 6 7 8 9 9 9 10 11 10 8 8 9 10 10 11 12 12 13 13 13 13 13 14 15 15 16 17 18 20 22 22 22 23 25 26 26 24 22 22 24 24 24 24
14 13 12 11 10 7 5 4 3 3 3 3 3 4 6 6 6 7 6 6 7 8 8 8 9 10 10 9 8 8 10 10 10 10 10 10 11 11 12 11 10 9 10 11 13 16 18 20 23 25 26 28 29 31 33 34 30 27 27 27 27 27 26
14 13 11 10 8 6 4 4 4 3 4 3 3 4 5 5 5 5 5 5 7 7 7 8 9 10 11 10 9 9 9 10 9 8 7 7 8 8 8 8 7 7 8 9 11 12 14 17 21 24 26 30 34 35 38 40 39 36 35 34 32 31 31
13 13 12 9 7 6 5 4 4 3 3 3 3 3 3 3 3 3 4 6 8 8 7 8 9 9 10 9 9 9 9 9 9 8 6 5 6 5 4 5 6 7 6 7 8 9 12 15 18 20 23 27 32 34 34 36 36 36 35 36 37 37 36
12 12 11 9 7 6 5 4 3 3 3 3 3 3 2 2 2 2 4 6 8 7 7 8 9 9 9 8 8 8 9 9 8 7 5 5 5 5 3 4 5 5 5 6 7 9 12 14 14 14 15 18 23 26 27 25 25 27 30 33 36 38 39
Wind_Direction
131 118 103 94 85 79 84 90 105 168 179 191 191 187 186 192 197 200 208 213 207 204 205 204 202 201 201 202 203 200 195 195 193 188 191 193 192 196 196 192 193 194 196 200 202 203 206 209 207 207 212 215 215 214 212 211 210 209 211 208 204 206 203
148 129 115 112 103 98 97 99 98 97 145 190 192 185 184 191 200 205 208 208 205 208 213 210 204 200 199 200 201 200 197 196 192 187 192 193 190 194 194 192 195 196 195 197 200 204 206 208 207 208 212 213 212 214 213 212 211 209 210 210 208 211 209
158 134 124 123 119 118 116 119 113 90 92 145 185 196 196 202 210 214 215 212 210 215 216 211 208 205 200 199 199 198 196 194 189 186 193 195 192 191 192 192 194 195 195 196 200 205 207 206 205 208 212 210 208 215 216 213 213 210 211 212 209 214 216
159 139 133 132 134 139 134 133 131 107 87 82 80 122 223 223 222 222 221 215 212 219 222 218 212 207 203 198 196 198 199 193 186 186 193 196 193 190 192 194 192 190 193 196 199 202 203 204 204 208 213 208 202 210 214 212 214 212 212 214 211 215 221
166 153 149 151 154 154 147 149 144 123 109 113 94 334 272 229 217 215 214 209 207 217 226 223 211 205 207 204 200 203 201 192 185 187 193 194 192 191 192 194 193 190 192 195 198 201 199 197 200 206 212 209 202 206 211 210 210 211 213 216 212 214 222
173 166 166 173 170 160 159 171 168 149 141 150 159 231 234 213 208 205 205 208 207 210 215 209 205 212 213 205 203 204 198 193 190 190 193 194 192 191 191 191 192 193 194 194 198 204 202 196 196 202 208 208 203 205 211 210 210 211 215 217 213 211 216
173 173 178 184 183 173 175 192 195 178 177 177 173 192 205 205 210 205 203 209 208 210 208 198 200 215 213 204 202 201 195 195 195 193 195 195 192 189 189 190 192 193 194 196 199 205 206 200 196 200 203 203 203 206 209 209 209 210 216 220 217 215 214
167 172 179 188 195 186 183 203 218 204 195 191 188 191 188 196 208 208 206 203 197 204 206 200 202 205 200 198 202 198 194 196 198 197 196 194 191 189 189 191 192 191 192 196 200 204 206 203 199 199 200 200 202 205 207 212 213 211 216 221 221 221 219
156 158 162 174 190 189 183 200 221 217 203 186 183 195 195 193 199 205 207 200 193 199 202 200 203 198 189 193 200 197 192 193 198 199 194 191 191 190 191 191 191 191 190 192 197 199 202 202 200 200 200 200 203 204 206 214 219 215 216 219 220 220 220
152 152 152 162 177 185 185 196 210 213 207 193 179 187 196 198 197 195 197 197 193 194 196 195 196 196 193 195 199 197 191 191 197 197 191 191 193 191 191 192 192 193 192 190 193 196 196 195 195 199 201 200 203 208 208 212 217 216 216 218 219 219 219
153 153 155 164 175 179 181 195 208 207 208 204 186 175 176 185 197 195 189 191 192 190 192 192 190 194 197 196 197 195 193 196 198 194 190 192 193 192 192 191 191 194 195 192 192 195 197 197 195 198 205 205 204 210 213 212 213 216 217 219 221 221 222
152 151 155 167 174 175 175 188 206 205 209 215 199 181 174 169 183 203 195 189 189 186 188 193 191 191 195 196 197 195 195 197 195 191 192 193 192 192 193 192 192 194 195 194 194 195 198 202 201 200 208 211 207 210 215 214 214 216 216 216 220 223 224
145 143 149 163 171 170 171 185 204 208 212 216 203 190 185 174 173 194 208 199 188 182 184 191 193 192 191 193 197 197 194 194 192 191 194 193 192 193 192 192 192 194 196 196 197 198 198 203 207 205 208 212 210 210 215 215 215 217 216 216 218 222 224
144 143 149 160 164 158 158 170 182 200 211 211 201 191 188 180 172 182 210 213 197 186 185 187 189 190 190 189 193 195 193 192 192 194 196 194 193 194 193 193 194 194 197 198 199 202 201 203 207 207 207 210 211 212 215 217 218 218 219 219 219 221 223
153 153 156 163 160 150 148 150 152 172 194 194 197 193 187 186 182 183 203 215 207 196 191 189 186 185 188 189 190 193 194 193 192 194 195 195 195 196 195 195 196 197 199 200 201 203 205 205 205 207 208 210 212 214 215 218 221 221 222 222 222 223 225
164 164 163 164 163 152 144 139 135 138 148 166 185 190 186 188 192 190 196 211 214 206 199 197 191 184 185 188 188 193 199 199 196 195 195 197 200 202 201 199 200 201 202 204 204 204 206 208 207 208 211 212 214 216 217 220 223 225 226 224 221 222 225
169 170 169 166 166 160 152 146 137 131 122 129 167 185 188 189 195 194 193 201 213 212 207 206 200 188 184 186 188 192 198 201 202 201 201 202 204 206 207 205 204 206 207 208 209 208 208 210 210 211 213 215 217 219 221 223 224 228 232 232 228 225 225
173 176 174 171 171 168 165 162 150 138 128 118 131 168 189 192 193 195 194 194 200 205 206 209 209 196 186 190 197 199 200 201 201 203 206 207 209 210 211 210 209 210 211 211 212 213 214 215 215 215 216 218 221 222 224 226 226 228 234 236 232 228 228
176 178 178 176 176 177 178 178 170 156 142 124 115 124 153 178 188 196 200 199 196 196 196 201 209 202 190 197 209 210 209 208 204 204 207 209 211 213 215 216 215 214 214 214 215 215 219 222 223 223 223 223 225 226 227 229 229 231 235 237 232 227 227
178 179 181 180 180 182 184 184 183 178 165 146 125 116 115 117 130 175 203 199 187 188 199 207 211 206 199 208 218 217 215 215 213 212 211 211 213 215 216 218 219 219 217 218 219 219 222 226 227 228 229 228 229 230 231 231 231 233 238 241 237 230 227
180 180 181 182 185 190 192 191 191 189 183 171 146 134 132 126 120 121 128 134 145 183 216 222 220 211 205 212 219 217 215 217 218 218 217 215 215 216 218 220 221 221 220 220 222 224 226 230 231 230 231 233 233 233 234 234 235 237 241 244 241 233 229
178 181 181 182 186 190 193 196 193 187 187 193 192 173 166 169 162 145 126 117 142 185 211 217 215 211 209 212 216 218 218 218 218 220 221 220 218 218 219 220 222 223 224 224 225 226 228 231 233 233 235 237 238 238 237 237 237 240 245 247 242 234 231
173 178 177 177 182 187 194 199 195 190 190 198 211 210 194 185 182 179 174 162 166 195 211 211 207 209 215 219 220 222 222 222 221 221 221 222 222 221 220 221 222 223 225 227 228 229 230 231 233 236 237 238 240 240 241 240 239 242 246 247 243 236 232
168 172 171 170 171 174 187 196 193 192 195 195 202 208 202 193 189 186 185 181 188 208 216 218 217 218 221 224 226 228 227 226 226 227 226 226 227 227 225 225 225 224 224 226 227 229 231 232 233 235 237 238 240 241 243 243 242 244 247 247 244 239 235
165 167 166 164 159 157 170 185 187 187 187 183 184 188 192 204 213 204 192 187 198 216 221 221 224 230 230 227 228 232 234 232 232 232 233 233 233 232 232 232 233 232 229 228 228 229 232 233 234 236 237 239 241 241 243 243 243 245 248 247 244 241 238
164 164 161 157 156 158 165 173 174 174 171 170 176 187 204 224 232 233 226 203 200 219 235 234 227 231 236 235 232 232 234 239 241 239 239 239 238 236 235 236 238 239 238 236 234 234 236 237 238 240 241 243 244 244 244 244 244 245 248 248 245 241 238
160 160 158 159 160 159 159 160 162 166 174 184 198 213 226 233 231 233 236 212 197 207 224 232 229 227 231 235 235 233 232 236 239 237 238 241 242 239 236 235 236 238 240 241 240 239 241 241 241 242 243 244 245 246 245 246 246 247 249 250 248 244 240
155 152 153 158 159 157 158 161 165 173 188 209 226 235 238 236 229 227 226 216 220 222 222 229 232 231 228 227 227 227 228 231 234 235 235 239 243 245 243 240 240 239 239 240 240 241 243 245 246 246 246 246 246 246 246 246 247 247 248 249 248 246 243
152 150 153 155 155 158 162 166 170 181 202 222 239 250 249 236 221 226 228 225 236 240 234 227 226 226 229 228 225 227 230 234 238 241 241 241 243 246 247 247 248 246 245 245 244 243 243 245 247 249 249 248 248 248 247 246 246 245 246 247 247 246 244
151 155 158 153 153 159 166 171 179 196 220 235 248 254 251 245 229 225 228 238 243 243 246 244 227 210 217 227 227 228 233 240 243 245 246 247 249 251 253 253 254 253 253 253 252 251 250 249 249 250 251 251 251 250 248 247 247 246 246 247 247 245 244
155 157 156 155 160 166 170 181 199 220 239 250 254 254 253 250 241 229 227 240 242 232 234 249 240 214 217 231 234 232 237 244 250 254 257 259 260 262 264 263 263 263 262 261 261 260 259 257 255 254 254 254 254 254 251 250 250 250 248 248 248 247 246
154 154 158 165 171 173 179 195 211 211 223 242 248 252 254 247 241 234 229 239 244 232 223 240 244 228 224 233 238 243 247 250 255 262 265 268 271 273 275 276 275 272 270 268 267 266 266 265 263 261 261 259 258 258 257 254 253 253 250 250 251 252 253
155 156 164 173 176 176 183 204 206 180 192 226 237 248 260 259 254 247 238 239 246 239 227 234 241 240 243 247 248 252 256 259 265 270 272 275 277 278 281 283 282 279 275 272 270 268 268 267 267 266 265 263 263 263 262 259 257 257 255 253 252 254 256
163 165 169 176 180 180 183 200 203 185 195 221 231 250 268 270 265 256 247 241 239 239 236 234 231 233 249 260 263 263 266 267 269 273 277 279 281 283 286 285 283 281 277 273 272 273 272 271 271 270 268 266 264 262 261 259 257 257 257 255 253 252 252
172 174 176 178 180 179 181 194 199 193 205 223 239 258 268 268 262 254 246 241 241 243 242 241 239 237 244 257 268 276 285 287 279 270 272 278 282 286 287 284 278 273 275 278 280 282 282 279 276 273 270 268 265 262 261 259 255 250 248 249 248 246 244
175 174 171 169 171 174 180 188 188 195 214 231 252 261 260 259 257 253 244 236 239 239 232 234 243 244 243 254 267 272 280 290 288 277 272 277 280 281 285 289 283 271 274 285 290 292 295 292 286 280 274 269 266 263 261 260 257 253 250 247 245 243 243
176 171 165 163 172 178 179 187 200 217 229 235 246 250 249 250 251 253 247 231 224 224 227 232 238 242 245 256 268 266 266 272 276 276 278 286 286 277 271 287 290 282 286 301 308 314 320 315 304 293 282 274 272 271 269 267 265 262 258 254 249 246 245
174 174 169 168 178 185 184 190 209 235 239 228 223 222 228 239 241 245 252 242 226 218 226 235 238 241 246 251 256 267 277 277 271 268 273 284 290 281 255 255 274 288 312 334 343 344 344 342 334 321 303 287 280 279 279 277 272 265 260 256 252 248 245